Location: Ocean City
(38.3360°N, 75.0850°W)
Time: 08:53:03
(UTC-05:00)

UWE-3 - Visible Passes

Search period start: 22 November 2019 00:00
Search period end: 02 December 2019 00:00
Orbit: 586 x 682 km, 97.6° (Epoch: 21 November)

Date Brightness Start Highest point End Pass type
(mag) Time Alt. Az. Time Alt. Az. Time Alt. Az.
22 Nov ? 04:29:37 10° ENE 04:31:25 12° E 04:33:13 10° ESE visible
22 Nov ? 06:03:41 10° N 06:08:13 59° WNW 06:12:38 10° SSW visible
23 Nov ? 04:49:49 10° NE 04:53:17 21° E 04:56:41 10° SE visible
23 Nov ? 17:19:48 10° S 17:24:12 52° W 17:28:45 10° NNW visible
24 Nov ? 05:10:51 10° NNE 05:15:05 35° E 05:19:11 10° SSE visible
24 Nov ? 17:41:57 10° SSW 17:45:57 30° W 17:50:02 10° NW visible
25 Nov ? 05:32:14 10° NNE 05:36:48 63° E 05:41:13 10° S visible
25 Nov ? 18:04:40 10° SW 18:07:46 18° W 18:10:55 10° NW visible
26 Nov ? 05:53:52 10° N 05:58:27 74° WNW 06:02:52 10° SSW visible
26 Nov ? 18:29:22 10° W 18:29:39 10° W 18:29:56 10° W visible
27 Nov ? 04:40:31 10° NE 04:43:23 16° E 04:46:12 10° SE visible
27 Nov ? 06:15:42 10° N 06:20:00 42° WNW 06:24:11 10° SW visible
27 Nov ? 17:09:51 10° S 17:14:23 67° W 17:19:03 10° NNW visible
28 Nov ? 05:01:18 10° NE 05:05:12 28° E 05:09:00 10° SSE visible
28 Nov ? 17:31:50 10° SSW 17:36:05 38° W 17:40:27 10° NNW visible
29 Nov ? 05:22:33 10° NNE 05:26:57 49° E 05:31:12 10° S visible
29 Nov ? 17:54:16 10° SW 17:57:52 22° W 18:01:32 10° NW visible
30 Nov ? 05:44:04 10° NNE 05:48:38 87° ESE 05:53:00 10° SSW visible
30 Nov ? 18:17:32 10° WSW 18:19:43 13° W 18:21:55 10° WNW visible
01 Dec ? 04:31:29 10° ENE 04:33:27 13° E 04:35:24 10° ESE visible
01 Dec ? 06:05:49 10° N 06:10:13 53° WNW 06:14:28 10° SSW visible
01 Dec ? 16:59:57 10° S 17:04:35 84° WSW 17:09:17 10° NNW visible
